{"data":{"norad_id":53720,"intl_designator":"2022-107W","name":"STARLINK-4642","alt_names":[],"object_type":"PAYLOAD","status":"ACTIVE","operator":null,"country":"US","launch_date":"2022-09-05","launch_site_code":"AFETR","launch_vehicle":null,"mission":null,"orbit_class":"UNKNOWN","rcs_meters":null,"size_class":null,"mass_kg":null,"dimensions":null,"purposes":["comms"],"wikipedia_slug":null,"has_3d_model":false,"image_url":null,"decayed_at":null,"tle_current":{"epoch":"2026-05-24T18:39:03.831552Z","epoch_age_seconds":103213,"freshness":"FRESH","line1":"1 53720U 22107W   26144.77712768  .00000140  00000+0  26883-4 0  9996","line2":"2 53720  53.2126 272.3061 0001951  86.9330 273.1885 15.08837512205904","mean_motion":15.08837512,"eccentricity":0.0001951,"inclination_deg":53.2126,"raan_deg":272.3061,"arg_perigee_deg":86.933,"mean_anomaly_deg":273.1885,"bstar":2.6883e-5,"rev_number":20590,"period_min":95.437712049672,"perigee_km":538.40131384762,"apogee_km":541.1006737428,"semimajor_km":6917.8879937952,"source":"CELESTRAK","updated_at":"2026-05-25T13:38:17.535074Z"}}}